Regional Weather Roundup
Issued by NWS

Home | Current Version | Previous Version | Text Only | Print | Product List | Glossary On
Versions: 1 2 3 4 5 6 7 8 9 10 11 12 13 14 15 16 17 18 19 20 21 22 23 24 25 26 27 28 29 30 31 32 33 34 35 36 37 38 39 40 41 42 43 44 45 46 47 48 49 50
000
ASUS43 KTOP 310508
RWRKS

WEATHER ROUNDUP FOR KANSAS
NATIONAL WEATHER SERVICE GOODLAND KS
1200 AM CDT THU JUL 31 2014

NOTE:  "FAIR" INDICATES FEW OR NO CLOUDS BELOW 12,000 FEET WITH NO
SIGNIFICANT WEATHER AND/OR OBSTRUCTIONS TO VISIBILITY.

KSZ001>006-013>018-027>032-041>047-310600-
NORTHWEST KANSAS

CITY           SKY/WX    TMP DP  RH WIND       PRES   REMARKS
GOODLAND       MOCLDY    62  59  90 NW5       30.25F
HAYS           PTCLDY    63  57  82 SW6       30.18R
HILL CITY      MOCLDY    63  55  75 CALM      30.19R
RUSSELL        PTCLDY    62  60  93 SW7       30.15S
$$

KSZ061>065-074>080-084>089-310600-
SOUTHWEST KANSAS

CITY           SKY/WX    TMP DP  RH WIND       PRES   REMARKS
DODGE CITY     CLEAR     61  55  81 E3        30.19F
ELKHART          N/A     60  58  93 N1          N/A
GARDEN CITY    MOCLDY    61  59  93 W3        30.22R
GREAT BEND     CLEAR     61  55  82 W6        30.16S
LIBERAL        PTCLDY    59  54  82 NW6       30.24R
PRATT          CLEAR     59  59 100 NW6       30.18R
$$

KSZ066>073-081>083-090>101-310600-
SOUTHEAST KANSAS

CITY           SKY/WX    TMP DP  RH WIND       PRES   REMARKS
CHANUTE        FOG       62  62 100 CALM      30.11S VSB 1/4
COFFEYVILLE    CLOUDY    67  66  97 NE5       30.08S
HUTCHINSON     FOG       58  56  93 NW3       30.14S VSB 1/4
MEDICINE LODGE   N/A     63  61  93 CALM      30.14S
NEWTON         CLEAR     63  55  77 NE6       30.16F
PARSONS        MOCLDY    67  64  90 N3        30.10F
WICHITA INTL   PTCLDY    65  62  90 N6        30.13S
WICHITA JABRA  PTCLDY    63  62  97 N5        30.12F
WICHITA MCCONL CLEAR     62  62 100 N7        30.13S
WINFIELD       PTCLDY    66  66 100 N6        30.12R
$$

KSZ007>012-019>026-033>040-048>060-102>105-310600-
NORTHEAST KANSAS

CITY           SKY/WX    TMP DP  RH WIND       PRES   REMARKS
CONCORDIA      CLEAR     64  55  72 CALM      30.14S
EMPORIA        CLEAR     62  62 100 W3        30.12S FOG
LAWRENCE       PTCLDY    61  57  87 CALM      30.11R
MANHATTAN      CLEAR     61  58  90 CALM      30.13R
MARYSVILLE     PTCLDY    59  54  82 CALM      30.13R
OLATHE IND     CLEAR     65  59  81 CALM      30.11S
OLATHE EXE     CLEAR     64  61  90 CALM      30.10S
SALINA         CLEAR     61  56  83 CALM      30.14S
TOPEKA BILLARD CLEAR     63  57  81 CALM      30.12R
TOPEKA FORBES  CLEAR     61  57  87 CALM      30.12R
$$



USA.gov is the U.S. government's official web portal to all federal, state and local government web resources and services.